• en Belgique
  • Liste des pays
  • À 7 jours
  • Température de l'eau
  • Carte satellitaire
  • Carte météo
  • Widgets météo
  • user-avatar
    Se connecter

    Météo par heure à Fier

    Ce jour, 25 Novembre, Samedi

    Heure Température Précipitation Vent Pression Humidité
    00:00 +10°C° 0 mm 1 m/s 765 mmHg 80%
    01:00 +10°C° 0 mm 1 m/s 765 mmHg 80%
    02:00 +10°C° 0 mm 1 m/s 765 mmHg 79%
    03:00 +10°C° 0 mm 1 m/s 764 mmHg 78%
    04:00 +10°C° 0 mm 1 m/s 764 mmHg 77%
    05:00 +10°C° 0 mm 1 m/s 764 mmHg 76%
    06:00 +10°C° 0 mm 1 m/s 764 mmHg 75%
    07:00 +9°C° 0 mm 2 m/s 764 mmHg 74%
    08:00 +11°C° 0 mm 1 m/s 764 mmHg 67%
    09:00 +13°C° 0 mm 1 m/s 764 mmHg 61%
    10:00 +15°C° 0 mm 1 m/s 764 mmHg 54%
    11:00 +16°C° 0 mm 1 m/s 763 mmHg 53%
    12:00 +16°C° 0 mm 2 m/s 763 mmHg 53%
    13:00 +17°C° 0 mm 2 m/s 763 mmHg 52%
    14:00 +16°C° 0 mm 2 m/s 763 mmHg 58%
    15:00 +15°C° 0 mm 2 m/s 763 mmHg 64%
    16:00 +14°C° 0 mm 2 m/s 762 mmHg 70%
    17:00 +13°C° 0 mm 2 m/s 763 mmHg 74%
    18:00 +12°C° 0 mm 2 m/s 763 mmHg 77%
    19:00 +12°C° 0 mm 2 m/s 763 mmHg 81%
    20:00 +10°C° 0 mm 3 m/s 763 mmHg 82%
    21:00 +10°C° 0 mm 3 m/s 763 mmHg 82%
    22:00 +10°C° 0 mm 4 m/s 763 mmHg 83%
    23:00 +10°C° 0 mm 4 m/s 763 mmHg 83%

    Demain, 26 Novembre, Dimanche

    Heure Température Précipitation Vent Pression Humidité
    00:00 +10°C° 0 mm 4 m/s 763 mmHg 82%
    01:00 +10°C° 0 mm 4 m/s 763 mmHg 82%
    02:00 +9°C° 0 mm 5 m/s 762 mmHg 82%
    03:00 +9°C° 0 mm 5 m/s 762 mmHg 81%
    04:00 +9°C° 0 mm 5 m/s 762 mmHg 80%
    05:00 +9°C° 0 mm 5 m/s 762 mmHg 80%
    06:00 +9°C° 0 mm 6 m/s 762 mmHg 81%
    07:00 +9°C° 0 mm 6 m/s 762 mmHg 81%
    08:00 +11°C° 0 mm 6 m/s 761 mmHg 76%
    09:00 +14°C° 0 mm 6 m/s 761 mmHg 72%
    10:00 +16°C° 0 mm 7 m/s 761 mmHg 67%
    11:00 +16°C° 0,1 mm 7 m/s 760 mmHg 66%
    12:00 +17°C° 0,1 mm 7 m/s 760 mmHg 64%
    13:00 +18°C° 0,1 mm 8 m/s 759 mmHg 62%
    14:00 +17°C° 0,5 mm 7 m/s 759 mmHg 67%
    15:00 +16°C° 0,5 mm 7 m/s 759 mmHg 72%
    16:00 +15°C° 0,5 mm 7 m/s 758 mmHg 76%
    17:00 +14°C° 1,2 mm 6 m/s 758 mmHg 80%
    18:00 +14°C° 1,2 mm 6 m/s 758 mmHg 84%
    19:00 +13°C° 1,2 mm 6 m/s 758 mmHg 88%
    20:00 +13°C° 1,5 mm 6 m/s 758 mmHg 89%
    21:00 +13°C° 1,5 mm 6 m/s 758 mmHg 89%
    22:00 +13°C° 1,5 mm 5 m/s 758 mmHg 90%
    23:00 +13°C° 2,2 mm 5 m/s 758 mmHg 90%

    Après-demain, 27 Novembre, Lundi

    Heure Température Précipitation Vent Pression Humidité
    00:00 +13°C° 2,2 mm 4 m/s 758 mmHg 90%
    01:00 +12°C° 2,2 mm 3 m/s 757 mmHg 89%
    02:00 +12°C° 2,2 mm 3 m/s 757 mmHg 91%
    03:00 +12°C° 2,2 mm 4 m/s 757 mmHg 92%
    04:00 +12°C° 2,2 mm 4 m/s 756 mmHg 94%
    05:00 +12°C° 0,9 mm 3 m/s 756 mmHg 94%
    06:00 +12°C° 0,9 mm 3 m/s 756 mmHg 94%
    07:00 +11°C° 0,9 mm 3 m/s 756 mmHg 94%
    08:00 +13°C° 0,5 mm 2 m/s 757 mmHg 91%
    09:00 +13°C° 0,5 mm 2 m/s 757 mmHg 89%
    10:00 +13°C° 0,5 mm 2 m/s 757 mmHg 87%
    11:00 +13°C° 0,6 mm 2 m/s 757 mmHg 86%
    12:00 +12°C° 0,6 mm 3 m/s 757 mmHg 85%
    13:00 +12°C° 0,6 mm 3 m/s 757 mmHg 84%
    14:00 +11°C° 0,6 mm 4 m/s 757 mmHg 84%
    15:00 +11°C° 0,6 mm 4 m/s 757 mmHg 84%
    16:00 +10°C° 0,6 mm 5 m/s 757 mmHg 84%
    17:00 +9°C° 0,1 mm 5 m/s 757 mmHg 84%
    18:00 +9°C° 0,1 mm 5 m/s 758 mmHg 84%
    19:00 +8°C° 0,1 mm 5 m/s 758 mmHg 83%
    20:00 +8°C° 0 mm 5 m/s 758 mmHg 83%
    21:00 +8°C° 0 mm 5 m/s 758 mmHg 82%
    22:00 +8°C° 0 mm 5 m/s 759 mmHg 81%
    23:00 +8°C° 0 mm 5 m/s 759 mmHg 82%

    28 Novembre, Mardi

    Heure Température Précipitation Vent Pression Humidité
    00:00 +7°C° 0 mm 5 m/s 759 mmHg 82%
    01:00 +7°C° 0 mm 4 m/s 759 mmHg 83%
    02:00 +6°C° 0 mm 4 m/s 759 mmHg 83%
    03:00 +6°C° 0 mm 4 m/s 759 mmHg 83%
    04:00 +6°C° 0 mm 4 m/s 759 mmHg 84%
    05:00 +6°C° 0 mm 4 m/s 759 mmHg 83%
    06:00 +5°C° 0 mm 3 m/s 759 mmHg 83%
    07:00 +5°C° 0 mm 3 m/s 759 mmHg 83%
    08:00 +7°C° 0 mm 3 m/s 759 mmHg 77%
    09:00 +8°C° 0 mm 3 m/s 759 mmHg 71%
    10:00 +9°C° 0 mm 3 m/s 760 mmHg 65%
    11:00 +10°C° 0 mm 3 m/s 759 mmHg 63%
    12:00 +10°C° 0 mm 3 m/s 759 mmHg 62%
    13:00 +11°C° 0 mm 3 m/s 759 mmHg 60%
    14:00 +10°C° 0 mm 3 m/s 759 mmHg 64%
    15:00 +9°C° 0 mm 3 m/s 759 mmHg 67%
    16:00 +9°C° 0 mm 3 m/s 759 mmHg 71%
    17:00 +8°C° 0 mm 2 m/s 759 mmHg 73%
    18:00 +7°C° 0 mm 2 m/s 760 mmHg 75%
    19:00 +6°C° 0 mm 2 m/s 760 mmHg 76%
    20:00 +6°C° 0 mm 2 m/s 760 mmHg 76%
    21:00 +6°C° 0 mm 2 m/s 760 mmHg 75%
    22:00 +6°C° 0 mm 2 m/s 761 mmHg 74%
    23:00 +6°C° 0 mm 2 m/s 761 mmHg 73%

    29 Novembre, Mercredi

    Heure Température Précipitation Vent Pression Humidité
    00:00 +6°C° 0 mm 2 m/s 761 mmHg 73%
    01:00 +6°C° 0 mm 2 m/s 761 mmHg 72%
    02:00 +6°C° 0 mm 2 m/s 761 mmHg 73%
    03:00 +6°C° 0 mm 2 m/s 761 mmHg 75%
    04:00 +6°C° 0 mm 2 m/s 761 mmHg 76%
    05:00 +6°C° 0 mm 2 m/s 761 mmHg 78%
    06:00 +6°C° 0 mm 2 m/s 761 mmHg 80%
    07:00 +6°C° 0 mm 2 m/s 762 mmHg 82%
    08:00 +8°C° 0 mm 3 m/s 762 mmHg 77%
    09:00 +9°C° 0 mm 3 m/s 762 mmHg 72%
    10:00 +11°C° 0 mm 4 m/s 762 mmHg 67%
    11:00 +11°C° 0 mm 4 m/s 762 mmHg 63%
    12:00 +12°C° 0 mm 4 m/s 761 mmHg 60%
    13:00 +12°C° 0 mm 4 m/s 761 mmHg 56%
    14:00 +12°C° 0 mm 5 m/s 761 mmHg 60%
    15:00 +10°C° 0 mm 5 m/s 761 mmHg 64%
    16:00 +9°C° 0 mm 5 m/s 761 mmHg 68%
    17:00 +9°C° 0 mm 6 m/s 761 mmHg 70%
    18:00 +8°C° 0 mm 6 m/s 761 mmHg 72%
    19:00 +8°C° 0 mm 7 m/s 761 mmHg 75%
    20:00 +8°C° 0 mm 7 m/s 761 mmHg 76%
    21:00 +8°C° 0 mm 7 m/s 761 mmHg 77%
    22:00 +7°C° 0 mm 8 m/s 761 mmHg 78%
    23:00 +7°C° 0,1 mm 8 m/s 760 mmHg 77%

    30 Novembre, Jeudi

    Heure Température Précipitation Vent Pression Humidité
    00:00 +9°C° 0,1 mm 8 m/s 760 mmHg 77%
    01:00 +10°C° 0,1 mm 9 m/s 759 mmHg 77%
    02:00 +10°C° 0,3 mm 9 m/s 759 mmHg 78%
    03:00 +10°C° 0,3 mm 9 m/s 758 mmHg 79%
    04:00 +10°C° 0,3 mm 9 m/s 758 mmHg 81%
    05:00 +10°C° 0,3 mm 9 m/s 758 mmHg 81%
    06:00 +11°C° 0,3 mm 10 m/s 758 mmHg 82%
    07:00 +11°C° 0,3 mm 10 m/s 757 mmHg 82%
    08:00 +12°C° 0,2 mm 10 m/s 757 mmHg 81%
    09:00 +13°C° 0,2 mm 11 m/s 757 mmHg 79%
    10:00 +14°C° 0,2 mm 11 m/s 757 mmHg 77%
    11:00 +15°C° 0 mm 12 m/s 756 mmHg 75%
    12:00 +17°C° 0 mm 12 m/s 756 mmHg 74%
    13:00 +18°C° 0 mm 13 m/s 755 mmHg 72%
    14:00 +17°C° 0,2 mm 12 m/s 755 mmHg 75%
    15:00 +16°C° 0,2 mm 11 m/s 755 mmHg 79%
    16:00 +16°C° 0,2 mm 11 m/s 755 mmHg 82%
    17:00 +14°C° 0,5 mm 10 m/s 755 mmHg 83%
    18:00 +14°C° 0,5 mm 10 m/s 755 mmHg 84%
    19:00 +14°C° 0,5 mm 10 m/s 755 mmHg 85%
    20:00 +14°C° 0,1 mm 10 m/s 755 mmHg 85%
    21:00 +14°C° 0,1 mm 10 m/s 755 mmHg 85%
    22:00 +14°C° 0,1 mm 10 m/s 755 mmHg 85%
    23:00 +14°C° 0,9 mm 10 m/s 754 mmHg 87%
    Voir plus